Regional Weather Roundup
Issued by NWS Portland, ME

Current Version | Previous Version | Text Only | Print | Product List | Glossary Off
Versions: 1 2 3 4 5 6 7 8 9 10 11 12 13 14 15 16 17 18 19 20 21 22 23 24 25 26 27 28 29 30 31 32 33 34 35 36 37 38 39 40 41 42 43 44 45 46 47 48 49 50
000 ASUS41 KGYX 210910 RWRGYX WEATHER ROUNDUP FOR MAINE AND NEW HAMPSHIRE NATIONAL WEATHER SERVICE GRAY ME 500 AM EDT MON AUG 21 2017 MEZ002-005-006-010-012-015-018-020-021-024-026-027-029-211000- MAINE CITY SKY/WX TMP DP RH WIND PRES REMARKS PORTLAND CLEAR 60 56 86 CALM 30.11R SANFORD CLEAR 53 52 96 W5 30.12R BAR HARBOR CLEAR 57 55 93 CALM 30.07R WISCASSET CLEAR 56 54 93 CALM 30.10R ROCKLAND CLEAR 59 57 93 W6 30.07S FRYEBURG CLEAR 55 54 96 E3 30.12R LEWISTONAUBURN CLEAR 54 53 97 CALM 30.10R AUGUSTA CLEAR 62 57 83 S5 30.09R WATERVILLE CLEAR 57 56 96 CALM 30.06R BANGOR CLEAR 59 56 89 CALM 30.06R GREENVILLE N/A 61 58 90 NW7 30.07R MILLINOCKET CLEAR 63 60 90 VRB5 30.04S HOULTON CLEAR 63 60 90 SW6 29.99R PRESQUE ISLE CLEAR 63 59 87 W6 29.99R FRENCHVILLE CLEAR 60 57 89 W9 29.97R CARIBOU CLEAR 59 57 93 SW5 29.97R $$ NHZ002-005-008-009-011-012-014-211000- NEW HAMPSHIRE CITY SKY/WX TMP DP RH WIND PRES REMARKS PORTSMOUTH PTCLDY 62 59 89 W6 30.11R ROCHESTER CLEAR 59 55 87 CALM 30.12R NASHUA CLEAR 59 58 96 CALM 30.15R MANCHESTER CLEAR 62 56 80 CALM 30.13R CONCORD CLEAR 55 53 93 CALM 30.14S LACONIA CLEAR 59 57 93 CALM 30.15R PLYMOUTH FOG 54 53 97 CALM 30.15R VSB 1/2 BERLIN MOCLDY 49 46 90 CALM 30.15R FOG WHITEFIELD CLEAR 50 46 86 CALM 30.16R JAFFREY CLEAR 57 57 100 S5 30.19R KEENE N/A N/A N/A N/A MISG N/A LEBANON FOG 57 56 96 CALM 30.15S VSB 1/4 MT WASHINGTON FOG 48 48 100 NW46G52 N/A VSB 1/8 $$ VTZ005-007-008-211000- VERMONT CITY SKY/WX TMP DP RH WIND PRES REMARKS ST JOHNSBURY N/A 56 56 100 MISG 30.14R MONTPELIER PTCLDY 53 53 100 CALM 30.19R FOG BURLINGTON CLEAR 62 59 90 E5 30.12R $$ MAZ007-012-024-CTZ003-RIZ002-NYZ038-NYZ072-211000- SOUTHERN NEW ENGLAND AND NY CITY SKY/WX TMP DP RH WIND PRES REMARKS BOSTON CLEAR 69 59 70 W8 30.13S WORCESTER CLEAR 65 55 70 W13 30.17S NANTUCKET CLEAR 64 63 96 W3 30.15R PROVIDENCE CLEAR 65 60 84 W6 30.16R HARTFORD CLOUDY 61 59 93 CALM 30.17R ALBANY PTCLDY 61 58 90 CALM 30.17R NEW YORK CITY CLEAR 76 62 62 W3 30.16R $$ ANZ081-ANZ082-ANZ150-NHZ014-MEZ023>029-211000- COASTAL MARINE OBSERVATIONS STATION/POSITION TIME TEMP WIND PRES WAVE AIR SEA DIR/SP/G HT/PER (UTC) (F) (DEG/KT/KT) (MB) (FT/S) MOUNT DESERT ROC 0900 60 1018.1R MATINICUS ROCK 0800 62 270/ 11/ 12 1017.9R ISLE OF SHOALS 0800 64 290/ 2/ 3 1019.2R JEFFREYS LEDGE 0806 65 N/A 2/ 7 CASHES LEDGE BUO 0850 69 68 1019.2R 2/ 7 GEORGES BANK BUO 0750 65 64 1018.4 3/ 6 $$ .............KEY.............. WCI - WIND CHILL TC - TEMPERATURE IN CELSIUS VSB - VISIBILITY IN MILES HX - HEAT INDEX FAIR- INDICATES FEW OR NO CLOUDS BELOW 12,000 FT, WITH NO SIGNIFICANT WEATHER AND/OR OBSTRUCTIONS TO VISIBILITY.

USA.gov is the U.S. government's official web portal to all federal, state and local government web resources and services.